Theta_e
309 309 309 309 309 309 309 310 310 310 310 310 310 310 310 310 309 309 308 309 309 309 310 310 310 310 311 311 311 310 308 310 314 316 318 318 318 315 314 313 311 310 308 309 313 315 317 316 316 317 316 315 315 315 315 316 316 316 316 314 312 314 314 316 317 317 317 318 318 318 319 317 317 319 318 321 319 321 320 323 335 337 338 337 341 346 345 345
309 309 310 309 309 310 310 310 310 311 310 310 310 310 310 310 310 310 309 309 309 309 310 310 310 310 310 311 310 309 309 313 317 317 317 316 317 316 314 311 309 309 307 309 312 315 316 315 315 315 315 315 314 315 314 315 316 315 317 314 312 315 316 317 318 318 318 318 317 317 318 318 317 318 318 321 320 323 319 321 336 339 341 342 346 348 347 347
309 309 309 309 310 310 310 310 310 310 310 310 310 310 310 310 310 310 310 310 309 310 310 310 310 310 310 310 309 308 312 316 318 319 319 316 316 315 314 310 308 307 307 310 313 315 316 316 315 315 315 314 314 314 314 315 317 315 315 314 314 316 316 317 318 319 318 317 317 317 317 318 318 318 318 320 320 323 320 320 334 341 344 345 345 347 348 348
309 309 309 310 309 310 310 310 310 310 310 310 310 310 310 310 310 310 310 310 310 310 310 310 310 310 309 309 308 308 314 319 320 321 319 318 316 314 313 310 307 306 307 310 313 315 316 315 316 315 314 313 314 314 314 315 316 316 315 313 315 316 316 317 318 317 317 317 316 316 317 317 317 318 318 318 318 320 321 319 329 342 345 345 345 346 348 348
308 309 309 309 309 310 310 310 310 310 310 311 310 311 310 311 311 311 311 311 311 310 310 310 310 310 309 308 306 310 317 321 321 320 316 315 314 312 312 309 306 307 308 311 315 316 316 316 314 314 314 313 313 314 315 315 315 315 315 315 316 316 316 316 317 316 316 316 316 316 316 317 317 317 317 317 318 319 325 328 327 337 342 345 346 346 348 347
308 308 308 309 309 309 310 310 310 310 310 311 310 311 311 311 311 311 312 311 311 311 310 310 310 310 309 305 306 311 318 321 321 317 313 312 311 310 311 309 307 307 310 313 316 317 315 314 313 313 313 312 313 314 314 315 315 314 315 315 315 315 315 316 316 316 316 315 315 316 316 317 317 317 318 316 319 320 328 334 332 335 339 343 346 347 349 347
308 308 308 308 309 309 309 310 310 310 310 310 310 310 311 311 311 311 312 311 311 310 310 310 310 309 306 305 310 314 317 322 321 315 313 311 309 308 308 308 306 308 312 315 317 315 314 313 312 312 312 311 313 313 315 316 315 314 315 315 315 315 316 315 316 316 315 315 315 315 316 316 316 316 318 318 319 322 329 334 334 336 339 342 346 347 348 345
308 308 308 308 309 308 309 309 309 310 310 310 310 310 310 311 311 311 311 311 310 310 310 308 308 307 304 309 316 318 319 322 320 314 312 311 308 308 308 307 308 311 314 316 317 315 313 312 312 312 312 312 313 313 314 315 314 314 314 314 315 315 315 316 315 315 315 315 315 315 315 316 316 316 318 319 320 322 331 334 334 335 337 342 345 345 344 342
308 308 308 308 308 308 309 309 308 309 310 310 310 310 310 310 310 310 311 311 310 309 308 307 307 305 305 311 317 319 321 320 317 313 311 310 308 307 308 310 311 313 315 317 317 314 313 312 312 313 312 312 314 314 314 314 314 314 314 314 314 314 315 316 314 315 314 315 315 315 316 315 316 317 316 318 321 326 334 336 335 337 338 342 343 341 340 339
308 308 308 308 307 307 309 310 308 309 309 309 309 310 310 310 310 310 310 310 310 309 308 307 307 305 308 314 318 322 319 316 317 313 311 311 309 309 310 312 313 314 316 316 316 314 313 313 313 314 313 313 313 314 314 314 314 314 315 314 314 314 314 314 314 316 315 315 315 315 315 316 316 317 316 318 324 328 333 335 334 336 338 339 340 339 338 337
308 307 308 308 307 307 310 311 310 309 309 309 309 309 309 309 309 310 310 310 309 309 309 308 306 307 312 315 319 323 316 315 316 312 313 311 311 311 312 315 314 314 316 315 315 314 314 314 315 314 314 314 313 314 314 314 314 314 314 314 315 315 315 315 315 315 315 315 315 316 316 316 317 317 316 321 326 327 332 334 333 333 333 335 339 338 336 336
308 307 307 307 306 307 309 310 311 310 310 310 309 309 309 309 309 310 310 310 309 309 308 306 304 308 315 317 320 321 314 314 315 313 313 312 312 313 314 316 314 314 315 315 315 314 314 315 315 314 313 313 314 313 313 314 314 314 314 314 314 314 314 314 315 315 316 315 316 316 314 315 318 317 318 324 326 325 330 331 331 333 332 332 338 339 336 335
308 308 307 306 306 307 309 310 310 308 309 309 308 308 307 307 308 310 311 310 308 309 308 304 304 311 316 320 322 318 314 314 314 314 313 313 313 314 316 316 315 315 316 316 314 313 313 314 314 314 314 315 315 314 314 314 314 314 314 313 312 312 313 315 315 315 315 315 316 315 311 312 317 317 319 323 324 325 329 329 329 332 332 332 335 338 336 334
308 308 307 306 306 307 308 308 306 305 306 307 306 306 305 305 307 310 311 309 307 307 307 304 306 313 318 322 320 314 315 315 313 314 313 313 314 315 315 314 315 315 316 316 314 314 314 313 314 313 314 314 314 315 315 315 314 314 313 312 312 309 311 316 316 315 315 315 317 315 310 312 317 318 320 323 323 324 327 328 327 330 331 331 334 336 335 334
308 308 307 305 304 306 306 305 303 303 304 304 304 304 304 306 308 311 311 308 307 306 306 308 308 315 322 323 319 312 314 314 313 314 312 313 314 313 313 312 314 314 315 315 313 314 314 314 313 312 314 315 314 314 314 314 314 314 311 310 312 309 311 316 315 315 315 315 317 315 310 312 317 318 320 320 322 323 327 328 328 330 331 331 333 335 334 333
308 307 306 305 304 304 303 302 303 303 304 304 304 304 304 307 312 314 313 309 307 306 308 314 316 317 322 321 317 312 312 314 314 314 312 312 313 312 312 312 313 313 314 314 313 314 313 313 313 313 315 314 314 313 313 312 313 315 312 308 311 310 310 314 315 316 316 316 316 315 312 313 317 318 319 319 320 321 325 329 329 329 331 332 332 334 335 333
307 306 305 305 304 302 301 302 303 303 304 304 304 304 305 311 314 313 314 309 306 309 311 316 320 319 322 320 315 313 313 315 315 314 313 312 313 312 312 313 313 313 314 313 314 314 313 313 313 313 315 315 316 314 311 310 309 313 312 310 311 312 311 311 315 317 316 316 316 316 314 315 318 318 319 318 320 319 321 329 331 331 332 336 334 333 334 334
306 305 304 304 301 300 301 302 302 302 303 303 303 306 310 313 313 313 314 311 311 315 315 316 318 319 321 319 317 315 314 316 315 314 313 313 314 313 313 313 313 313 312 313 313 313 314 313 313 315 315 314 315 314 311 310 311 312 312 310 310 313 312 311 314 317 317 316 315 316 315 315 318 318 319 318 319 318 318 326 331 333 333 336 337 333 332 335
306 304 303 302 300 300 301 301 301 302 302 303 306 313 317 317 316 316 317 316 316 317 317 318 318 318 319 318 318 317 316 316 315 315 313 313 314 314 314 314 314 313 312 313 313 313 314 314 314 315 315 316 316 315 314 315 316 315 315 313 310 311 312 313 317 317 317 316 315 316 314 316 317 317 319 318 318 319 319 321 329 334 332 331 334 332 331 334
305 304 302 301 301 301 301 301 301 302 302 303 310 319 322 323 323 322 320 319 319 318 315 318 317 316 317 317 318 317 317 316 314 315 315 313 314 313 313 314 314 313 313 315 314 314 315 315 315 314 316 320 320 320 320 320 318 318 317 315 313 312 312 315 318 317 317 316 315 317 316 317 317 318 319 318 319 318 319 321 325 334 334 331 332 331 331 334
305 304 303 302 302 301 301 301 301 303 302 304 313 320 324 322 321 320 320 319 321 319 317 317 316 315 316 317 318 317 316 315 314 315 315 314 314 313 313 313 313 314 313 315 316 317 316 315 315 317 320 322 321 321 321 319 319 318 316 314 312 312 313 317 318 317 319 317 316 317 317 317 317 318 319 318 320 319 319 321 321 327 330 329 330 332 333 333
305 304 303 302 302 301 302 302 303 304 303 308 314 319 321 318 315 317 317 316 319 319 317 317 318 316 315 318 318 317 316 314 314 314 315 315 313 313 313 313 313 314 314 315 316 317 316 314 315 317 320 321 320 319 318 319 318 317 316 313 311 312 314 317 319 318 317 315 316 317 315 317 319 318 319 319 319 321 319 321 321 321 323 322 324 330 333 332
305 305 303 303 302 302 303 303 304 304 305 312 319 319 319 318 314 316 317 317 318 318 316 315 317 316 315 318 318 316 316 315 314 314 315 314 313 313 313 313 313 314 315 315 315 315 313 315 317 317 319 319 319 318 318 317 317 315 315 312 310 313 312 312 317 319 318 317 317 317 316 317 321 319 318 319 319 320 320 320 322 321 322 323 323 329 332 332
304 306 304 303 303 303 304 305 306 306 307 313 317 318 318 316 315 317 317 319 320 319 319 316 315 315 315 317 317 316 315 315 316 315 315 314 313 314 313 314 314 313 314 315 316 314 313 316 319 318 319 318 317 317 318 316 314 315 316 313 312 314 313 312 317 319 319 320 320 319 315 314 318 319 318 320 319 320 320 319 319 319 321 322 325 331 332 331
302 305 305 303 303 304 304 306 307 308 311 315 316 318 317 315 317 318 318 320 321 320 320 317 315 315 314 316 317 315 315 315 316 316 316 314 313 314 313 314 314 313 314 314 315 314 314 318 319 318 317 317 317 316 317 318 314 314 316 316 315 316 316 316 318 318 316 316 320 320 313 312 315 316 318 319 319 319 320 319 319 318 320 319 322 329 332 332
301 304 306 305 303 304 306 311 314 314 316 319 319 318 316 316 318 318 320 323 322 320 317 316 314 313 315 317 316 315 315 316 317 316 316 314 314 315 314 314 314 313 314 314 315 314 314 317 318 317 317 317 316 315 316 319 315 313 316 319 318 317 317 317 317 316 313 314 318 320 315 312 313 315 318 319 318 319 320 319 319 318 319 319 320 325 330 332
301 302 306 306 304 304 309 316 317 315 316 317 318 317 315 317 318 319 323 325 323 320 316 313 312 314 316 317 316 315 314 316 317 315 315 315 315 315 314 314 314 313 314 314 313 313 316 317 316 316 316 316 315 314 316 318 314 314 318 319 317 317 318 317 316 315 315 316 317 318 315 313 312 314 318 318 318 319 319 320 320 318 319 320 320 321 324 329
301 301 305 307 304 304 309 312 312 312 315 316 316 316 316 317 318 320 325 325 324 319 317 313 313 315 315 316 316 315 315 317 316 315 316 315 315 315 314 314 314 313 315 314 311 314 317 316 317 317 316 315 314 314 317 317 315 316 320 318 317 318 318 318 316 314 315 315 313 314 315 313 312 314 318 317 317 319 320 321 319 318 318 318 320 320 319 322
301 301 304 307 306 304 305 306 309 311 310 313 315 315 316 316 318 322 325 325 322 315 316 315 314 316 315 316 316 315 316 316 315 316 316 315 314 314 314 314 314 314 315 314 312 315 316 315 316 316 315 315 314 315 316 316 317 317 318 318 317 318 318 318 317 314 315 316 314 313 314 313 312 313 315 316 315 318 320 320 319 318 318 318 319 319 320 320
302 301 303 307 306 306 306 306 310 309 307 311 316 316 316 317 321 324 324 324 319 315 316 314 314 315 315 316 315 315 315 315 316 316 315 316 314 314 314 314 315 314 315 315 313 314 315 316 315 315 315 315 315 316 315 316 317 317 318 317 317 317 317 318 317 315 315 316 314 313 313 314 313 312 314 316 316 318 320 320 320 320 318 319 321 320 319 319
302 301 302 306 307 310 314 315 315 314 312 315 317 317 317 318 321 324 324 322 316 316 315 314 315 315 315 315 315 315 315 315 315 314 315 314 314 314 314 314 314 314 314 314 313 313 314 315 314 313 313 313 313 313 314 315 316 316 316 315 314 314 315 316 315 316 317 316 314 313 313 313 312 313 316 318 319 318 320 321 320 320 319 319 321 319 318 319
302 301 302 306 307 309 314 317 317 318 318 318 318 317 317 320 320 321 323 321 317 317 314 314 315 314 314 314 314 314 314 315 315 314 314 314 314 314 313 313 314 312 310 311 313 313 314 314 315 314 313 312 312 311 312 313 313 315 313 312 313 313 315 317 317 316 317 316 315 313 313 313 312 314 316 317 318 318 319 319 319 319 320 321 319 319 319 319
302 302 303 306 307 306 308 313 317 320 319 319 319 317 318 320 320 319 318 318 318 316 313 315 315 314 315 314 314 315 314 315 315 315 314 313 315 315 314 314 314 313 312 312 312 312 313 315 314 315 314 313 312 310 310 311 312 314 312 311 313 314 317 319 317 317 317 315 314 314 315 313 312 316 318 317 318 318 319 319 320 320 321 320 319 318 319 320
302 302 303 306 308 306 307 313 318 320 319 319 319 318 319 320 320 317 315 316 317 315 313 315 314 314 315 313 314 314 313 315 314 314 314 313 314 314 315 315 314 314 314 313 313 312 313 314 314 315 313 314 313 311 311 311 312 314 314 313 313 313 316 318 316 316 316 314 312 314 314 312 314 319 320 317 318 318 317 318 319 320 320 319 318 317 319 321
302 303 304 308 311 309 309 314 318 320 321 320 318 318 318 319 318 316 315 314 315 315 314 314 314 314 313 313 314 314 313 314 314 314 314 313 313 313 314 314 314 314 313 312 312 312 310 311 313 315 314 313 313 312 313 312 311 314 314 313 313 313 315 315 315 314 313 314 313 313 314 314 317 320 319 317 318 317 317 317 318 318 317 318 318 319 321 322
303 310 314 315 316 315 313 315 318 321 322 319 317 317 317 317 316 314 314 313 312 315 314 313 314 312 311 312 313 313 313 313 313 314 313 313 313 313 314 313 314 314 312 311 312 311 309 310 312 314 314 314 313 312 313 312 311 312 312 311 313 315 314 313 313 313 312 315 315 313 313 315 316 317 317 318 317 315 316 316 316 317 317 319 320 321 322 323
306 313 318 320 318 317 317 317 318 321 321 318 317 317 316 315 316 313 313 312 312 313 313 313 313 311 310 311 312 313 313 313 313 312 312 312 312 312 313 313 313 313 312 312 312 312 311 310 313 313 312 313 313 312 313 313 312 311 310 311 313 313 314 313 313 313 313 315 315 312 313 312 312 313 315 317 317 315 316 315 316 317 319 320 322 323 323 323
309 312 314 314 315 317 318 317 318 320 319 317 316 317 315 314 314 313 312 312 313 313 312 312 312 312 311 310 311 314 313 312 312 311 311 311 311 312 313 313 313 313 313 312 311 312 312 310 312 313 312 313 313 313 311 312 313 311 310 312 312 311 311 312 313 314 314 315 315 312 312 310 310 312 315 316 316 316 315 314 317 317 319 321 323 324 324 324
312 313 311 311 313 317 316 316 318 318 316 315 315 315 314 313 313 312 312 312 312 311 311 311 312 312 312 312 312 313 313 312 311 311 310 310 311 313 312 312 313 313 312 312 311 312 312 312 313 313 312 313 312 312 310 311 312 311 311 312 311 310 310 311 311 312 313 315 315 314 312 311 314 316 316 316 316 318 317 316 316 317 318 321 322 324 324 324
316 315 313 313 314 315 316 317 318 316 315 314 313 314 313 312 312 311 311 312 312 311 310 310 310 312 312 312 313 313 314 313 312 311 311 310 312 313 312 312 313 313 313 312 312 312 312 313 313 313 312 311 310 311 311 311 311 311 310 310 311 312 312 311 311 309 310 312 313 314 313 314 318 319 317 317 318 320 320 317 317 318 320 321 323 324 324 324
314 314 315 315 314 316 317 316 314 313 313 314 312 312 312 312 312 312 313 312 311 311 310 310 311 311 312 313 313 313 313 313 312 312 312 311 312 312 313 313 313 313 313 312 312 313 313 312 312 311 311 310 310 312 312 312 313 312 311 311 312 314 314 313 313 312 311 313 314 314 314 316 320 319 318 318 317 318 319 318 318 320 321 322 323 324 323 323
312 311 314 316 316 317 317 313 312 313 313 313 312 312 312 312 311 312 313 312 311 311 310 310 310 311 312 313 313 313 313 313 312 312 312 311 311 312 313 313 312 312 312 311 311 314 315 313 312 312 311 311 311 312 311 312 313 313 313 313 313 313 313 312 313 313 312 313 313 313 314 318 321 319 318 319 318 317 319 319 319 320 321 322 322 322 322 321
313 312 314 317 316 316 315 312 312 313 312 312 312 311 312 312 312 312 312 311 311 310 310 310 310 311 312 312 312 313 312 312 312 312 312 312 311 312 312 311 311 310 310 310 311 313 314 312 312 312 311 310 310 310 310 311 311 311 312 311 312 312 311 312 312 312 312 312 312 313 315 319 320 318 318 318 317 317 319 319 319 320 321 320 320 320 319 319
314 313 314 315 315 314 314 312 311 311 312 312 311 311 311 311 311 312 311 310 311 310 310 310 311 311 311 311 311 312 311 311 311 311 311 311 311 312 311 310 310 309 310 312 313 313 313 312 312 312 311 311 311 309 309 309 309 310 311 312 313 312 312 313 311 312 313 312 312 314 315 317 318 317 316 316 315 315 317 318 319 320 319 318 318 318 317 317
313 314 312 312 313 313 312 311 311 311 311 312 312 312 312 311 311 312 311 311 310 311 311 312 311 312 311 311 312 311 312 312 311 311 311 311 311 311 311 311 309 310 312 315 315 313 312 313 313 312 312 313 312 310 309 310 310 311 311 312 312 312 312 313 310 312 315 313 313 314 315 316 318 316 315 315 314 315 315 315 317 318 318 318 318 318 317 317
313 313 311 311 312 311 311 310 309 310 311 312 312 312 313 313 312 311 310 311 311 310 311 311 311 311 311 312 312 311 311 311 310 311 311 310 311 310 311 309 309 311 314 314 313 311 311 312 312 312 312 312 311 310 310 311 311 311 311 311 312 312 312 313 311 312 314 314 314 314 314 315 316 315 315 315 315 315 315 315 316 318 318 318 318 318 317 317
312 311 311 312 312 311 311 310 309 309 310 311 311 311 312 313 312 311 310 310 309 309 310 310 310 310 311 312 312 312 311 311 311 311 310 310 310 310 310 310 310 313 313 311 310 310 309 310 311 311 311 310 310 309 310 310 310 310 310 310 311 311 312 313 313 313 313 313 313 313 314 315 314 313 314 314 314 315 315 315 316 318 319 318 317 317 317 316
310 311 311 311 311 311 311 311 310 310 311 311 311 311 312 312 312 312 311 310 310 310 309 310 310 309 310 310 311 311 311 311 312 311 311 310 309 310 310 309 310 312 312 309 308 309 309 309 310 310 310 310 309 309 310 310 310 310 309 309 309 311 312 313 314 313 313 313 313 313 314 314 313 312 313 313 314 314 314 315 316 317 318 317 316 317 316 316
309 310 310 310 312 312 311 310 310 310 311 311 311 311 311 312 312 312 310 311 312 311 310 310 310 309 309 309 309 311 313 314 314 314 314 313 312 311 311 310 310 311 310 309 310 311 310 310 310 310 310 310 309 309 310 310 310 309 309 309 310 311 312 312 312 312 312 313 313 313 315 315 313 312 312 313 314 314 314 314 314 314 315 316 318 317 316 314
307 309 308 309 312 311 308 309 310 309 309 310 310 310 310 311 311 311 310 310 310 310 311 311 310 310 310 309 308 311 313 314 315 315 316 315 313 312 312 312 311 310 309 310 310 312 311 310 311 311 311 311 310 309 309 309 309 309 309 309 309 310 311 311 312 313 313 313 313 313 315 315 312 312 312 313 313 313 312 313 313 313 313 314 316 316 315 314
304 307 308 309 311 309 306 308 309 308 308 310 310 310 309 309 310 309 309 308 308 309 309 309 310 310 310 310 310 311 310 311 311 312 312 312 312 312 311 311 310 310 310 310 311 312 310 310 310 311 311 311 309 309 309 309 308 309 310 310 310 311 312 312 312 313 313 314 314 314 314 313 312 312 312 312 312 312 312 312 313 313 313 312 313 313 314 314
302 304 307 309 310 309 306 306 308 309 309 309 309 308 308 308 308 308 308 307 307 307 307 307 308 309 310 311 310 309 308 308 308 308 308 308 309 309 309 308 308 309 310 310 311 310 310 310 310 310 310 310 309 309 309 309 310 310 310 311 311 311 311 312 312 312 313 313 313 312 312 311 311 312 312 312 312 312 312 312 312 312 313 312 312 313 313 313
Wind_Speed
11 11 11 11 10 10 10 10 10 10 11 11 11 11 11 11 11 11 11 11 12 12 12 12 13 13 14 14 16 16 17 17 17 16 16 17 15 10 6 6 8 10 10 11 12 12 12 12 13 13 11 9 7 7 9 10 7 6 5 7 8 7 10 8 11 11 4 3 3 7 5 2 4 5 3 2 6 8 13 6 15 15 13 16 19 25 24 24
11 11 11 11 10 10 11 11 11 11 11 11 11 11 11 11 11 11 11 11 11 12 12 13 12 13 14 14 15 15 17 18 19 19 21 19 15 15 13 10 9 10 11 12 14 13 12 10 11 12 9 7 7 8 9 8 8 7 6 7 8 9 11 11 16 10 4 6 8 8 3 1 3 5 4 4 8 8 11 8 16 19 16 20 21 22 21 22
12 12 11 11 10 10 11 11 11 11 11 11 11 11 11 11 11 11 11 11 11 12 12 13 12 13 13 14 15 14 15 18 16 15 17 18 16 15 14 13 11 11 14 15 14 13 12 11 11 10 9 8 7 9 10 7 7 8 7 7 9 11 13 16 17 8 7 9 10 8 4 2 5 4 3 5 10 10 11 9 13 19 17 19 18 18 19 19
12 12 12 11 11 11 11 11 11 11 11 11 11 11 11 10 11 11 11 11 11 12 12 12 12 13 12 14 13 12 14 14 7 1 5 11 14 13 13 14 12 13 17 17 15 12 13 12 10 10 9 8 8 10 10 7 6 7 8 9 11 13 13 13 11 6 7 9 9 11 7 6 9 2 2 7 9 10 9 12 11 19 22 19 18 17 17 16
13 12 12 12 12 12 12 12 11 11 11 11 11 11 10 10 10 10 11 11 12 12 12 12 12 12 13 13 11 11 11 6 2 7 8 8 8 9 11 11 11 13 16 16 15 13 13 12 10 9 8 8 9 9 9 10 8 7 9 12 13 15 13 10 8 4 3 6 6 9 9 9 8 3 6 10 7 8 3 8 6 17 25 21 20 17 16 14
13 13 12 12 12 12 11 11 11 11 12 11 11 11 11 11 10 11 11 11 11 11 11 12 12 12 12 11 10 9 8 2 3 5 6 5 4 6 9 10 11 13 14 14 15 13 11 10 9 8 7 8 11 11 10 11 10 8 10 12 12 14 14 11 7 4 3 4 7 8 10 9 7 7 10 10 9 6 7 19 15 16 21 19 18 16 16 14
13 13 12 12 12 12 12 11 11 11 11 11 11 11 11 11 11 11 11 11 11 11 11 11 11 12 11 11 9 7 8 7 2 4 3 2 2 4 8 10 11 12 13 14 14 11 8 10 10 9 8 9 11 13 11 12 14 11 9 11 12 13 13 11 8 6 4 6 8 9 11 9 8 9 7 7 9 4 10 16 17 19 17 15 15 14 14 12
13 13 13 13 12 12 12 11 11 11 11 11 11 11 11 11 11 10 10 10 10 10 10 9 10 10 9 10 8 6 9 7 2 4 2 3 3 6 10 11 12 13 13 14 14 10 8 10 11 9 9 10 10 12 12 12 13 11 10 11 13 13 10 9 8 8 8 8 8 11 12 10 10 10 6 6 8 4 13 15 14 15 14 15 13 13 12 9
13 13 13 12 12 12 11 11 11 11 11 11 11 11 11 11 11 10 10 10 10 10 9 9 9 7 7 7 8 6 3 3 6 4 4 6 7 11 13 11 13 14 13 15 15 12 9 9 11 11 10 11 10 10 11 9 7 7 11 13 13 14 10 8 10 11 11 8 8 12 11 11 13 10 8 9 6 7 15 16 14 14 12 13 11 10 10 8
14 14 13 12 12 12 11 11 11 11 11 11 11 11 11 11 11 11 11 10 9 9 8 8 7 5 6 7 8 5 2 6 7 7 7 9 10 12 12 12 14 14 14 13 13 12 10 8 9 9 8 11 10 9 9 8 6 5 9 13 13 13 10 9 11 12 10 8 10 12 11 13 12 7 7 8 6 10 17 16 12 12 10 10 11 8 8 8
14 13 13 12 12 12 11 11 11 12 12 12 12 11 11 11 11 11 10 10 9 8 8 7 5 4 8 8 7 4 2 3 6 9 9 9 11 11 12 13 13 14 14 11 10 11 11 10 8 6 5 5 8 9 9 11 10 8 8 10 12 12 11 12 13 11 8 8 11 11 12 14 9 7 10 7 9 9 15 17 12 10 6 7 12 9 6 6
14 13 13 12 12 12 11 11 11 12 12 12 12 12 12 12 11 10 10 9 8 7 7 6 3 4 8 8 10 8 2 1 5 8 9 10 11 12 11 11 12 13 13 9 8 11 11 9 8 8 6 4 8 7 6 10 10 9 8 9 13 13 13 15 14 12 9 9 11 9 10 11 8 10 10 8 9 9 13 13 12 12 7 7 10 10 6 4
15 13 13 12 12 11 11 11 12 12 12 12 13 13 13 12 11 10 9 8 7 7 7 5 2 5 8 6 8 8 2 1 5 6 9 10 11 11 8 9 11 12 13 9 8 9 9 8 8 11 9 7 9 4 5 7 7 9 10 9 11 10 13 15 14 13 12 11 11 9 8 8 11 13 7 10 8 10 11 10 11 14 10 9 8 8 7 4
15 13 12 12 11 11 11 11 12 13 13 13 13 13 14 13 11 10 9 8 6 5 5 3 2 4 6 7 5 6 4 2 5 8 10 11 12 10 8 8 9 10 11 10 8 5 6 8 9 10 9 9 10 7 6 7 6 8 10 9 7 8 11 12 12 11 12 9 11 9 7 6 11 12 11 8 8 9 9 11 12 13 10 8 9 9 8 5
15 13 12 12 11 11 12 12 12 13 13 14 13 14 14 13 11 9 8 7 5 3 4 4 5 5 6 9 6 6 7 6 7 9 11 12 12 9 9 10 9 10 9 8 8 4 6 8 8 8 8 10 10 8 8 8 7 7 8 7 8 9 7 10 12 11 9 7 11 9 7 7 12 11 14 7 8 8 7 13 12 9 10 8 8 9 8 7
14 13 12 11 11 11 12 12 12 13 14 14 13 14 13 12 10 9 8 6 3 2 2 4 9 10 6 4 5 8 8 9 9 10 11 13 12 9 9 10 10 9 8 9 7 5 8 9 8 8 9 9 9 8 7 6 7 7 7 7 8 10 5 9 11 11 10 8 12 11 8 8 6 9 11 7 7 9 7 14 13 8 9 8 7 8 7 7
14 13 12 11 11 11 11 12 12 13 14 14 14 13 11 10 8 8 7 4 2 3 6 9 8 9 7 5 3 8 10 10 9 11 11 12 11 10 10 9 9 9 8 8 7 6 8 7 7 7 7 7 6 7 6 7 7 6 7 7 9 11 6 7 10 11 10 9 9 11 12 9 5 11 7 7 7 10 8 13 16 11 8 7 5 6 6 6
14 13 11 11 10 10 11 11 12 13 13 13 12 10 9 8 7 7 5 2 1 5 10 12 9 5 7 10 10 10 11 10 9 11 11 10 10 7 10 9 7 8 8 7 8 8 7 7 7 6 6 6 7 8 7 6 5 4 5 6 7 9 7 4 6 8 8 6 7 10 11 10 7 11 7 6 6 10 8 11 14 14 11 8 5 6 7 8
15 13 11 10 10 10 10 11 12 12 13 12 10 9 8 6 6 5 6 5 4 5 5 6 10 5 2 9 12 9 10 10 9 10 11 10 8 8 10 10 7 8 8 5 8 9 6 5 6 6 6 7 8 7 4 5 9 11 10 7 6 6 7 3 4 7 6 6 8 9 10 12 11 11 10 9 7 7 6 6 11 14 13 11 8 9 9 10
15 13 11 10 9 9 10 10 12 12 12 11 7 7 7 3 2 3 7 9 9 11 10 4 14 13 6 7 8 6 9 8 9 10 11 11 9 9 10 9 8 8 7 7 7 7 6 6 6 8 5 3 4 4 5 7 10 11 11 9 5 6 7 4 7 10 4 4 6 7 11 12 8 8 11 10 8 6 6 5 6 13 14 13 12 13 14 13
17 13 11 10 9 9 9 10 11 11 12 9 5 5 6 4 3 1 1 9 15 17 18 13 14 16 10 2 8 8 7 8 9 10 11 12 10 8 8 8 9 7 7 11 7 5 4 6 8 8 1 3 6 8 7 7 9 9 9 9 5 7 4 6 6 6 5 3 5 6 11 9 8 12 10 4 5 8 6 6 5 9 12 11 12 16 16 14
18 13 12 10 9 9 9 10 11 11 11 7 5 9 8 8 7 6 6 8 12 16 18 16 14 13 10 6 5 7 8 9 10 11 12 12 11 9 8 9 9 8 8 10 6 3 5 8 13 9 3 2 3 6 7 8 9 8 7 7 6 8 3 11 8 2 5 2 5 6 9 9 9 11 6 4 7 4 5 7 8 6 9 8 8 16 17 14
20 15 12 9 8 9 9 10 10 10 10 8 8 11 11 9 9 10 8 7 10 12 16 15 14 11 10 11 7 7 10 10 10 12 14 12 11 10 8 9 9 9 9 10 7 6 6 5 7 4 3 2 5 4 6 6 6 7 6 7 6 9 8 3 6 1 2 1 3 7 8 9 9 6 5 8 9 4 3 8 11 7 7 7 5 14 15 12
22 17 12 9 9 8 8 10 10 12 13 13 15 16 12 8 8 10 7 6 8 10 12 14 13 11 12 11 10 12 12 9 10 12 16 13 11 10 10 10 9 9 9 10 10 10 10 1 6 6 4 2 4 4 5 5 6 7 8 9 9 9 10 5 4 6 4 4 4 9 8 6 8 5 6 9 6 7 7 11 11 8 7 7 5 13 14 11
23 19 12 9 8 8 9 10 10 14 12 13 18 18 11 7 6 8 6 5 6 7 11 12 10 11 14 11 9 11 10 10 12 12 18 14 12 10 9 8 8 9 10 11 11 10 8 2 4 3 2 3 4 5 7 6 6 8 9 10 12 13 12 8 1 3 2 5 6 8 6 5 8 8 9 10 7 8 9 10 9 8 8 8 6 12 14 13
24 21 14 9 8 7 7 5 8 13 12 13 13 9 7 6 6 7 5 4 5 4 7 9 8 8 12 11 8 8 9 10 9 10 18 14 14 10 7 6 6 9 10 8 7 7 4 1 1 3 2 4 7 7 8 8 7 6 4 6 11 10 10 10 8 4 4 5 4 7 6 5 5 8 9 10 10 10 8 8 8 8 6 7 6 8 13 13
24 22 17 10 8 5 4 5 11 13 8 5 3 3 5 6 6 6 5 4 4 5 7 7 6 7 9 10 10 9 6 5 6 12 13 10 12 8 8 8 6 7 7 5 3 3 3 4 2 4 5 5 8 7 8 10 8 4 2 7 10 8 9 10 9 7 6 6 3 7 8 7 5 8 7 5 7 10 10 10 9 9 9 9 7 7 9 10
24 23 19 11 9 7 8 10 14 14 11 8 8 7 7 8 7 4 3 3 2 5 7 6 4 5 9 10 12 13 5 4 8 9 9 10 10 7 9 12 10 8 8 7 4 1 3 4 5 5 7 6 7 9 10 12 9 5 2 4 8 9 10 9 8 7 6 6 6 7 8 7 5 7 6 4 6 8 10 9 8 9 10 10 9 10 10 9
24 23 21 12 9 9 12 12 12 14 16 14 9 8 7 7 6 3 2 3 2 3 3 5 4 5 10 10 12 16 8 5 7 7 9 11 11 9 9 9 12 13 7 6 5 3 4 5 3 5 7 6 10 10 7 8 7 5 4 5 8 11 10 8 6 6 6 6 8 7 7 6 4 6 6 6 7 7 7 7 8 8 7 5 5 5 2 3
23 23 22 13 7 8 10 13 15 14 12 12 9 9 8 5 3 4 4 3 4 4 4 5 6 9 11 10 11 14 11 8 6 6 8 9 11 12 10 9 9 11 7 4 7 9 4 2 2 6 7 8 11 8 1 3 6 5 5 6 8 10 8 6 5 5 5 6 8 10 11 9 6 5 4 2 6 7 5 4 6 6 5 4 3 1 1 0
22 22 22 13 8 7 6 7 10 9 6 7 9 8 7 4 3 5 5 3 4 5 7 6 8 12 13 12 11 11 12 11 6 7 7 7 9 10 8 8 7 5 7 5 7 11 7 6 5 7 8 9 11 9 5 6 8 6 5 6 7 6 5 5 4 5 6 6 8 11 11 10 7 4 1 3 5 6 3 3 7 5 3 4 5 2 0 0
21 20 21 15 12 13 12 8 9 8 5 8 8 6 5 4 6 6 6 6 4 4 7 7 9 11 14 15 11 10 11 11 9 9 9 8 8 8 8 7 5 4 7 6 5 7 8 8 8 8 9 8 9 7 6 7 7 6 6 6 6 4 4 5 4 5 6 6 7 7 6 6 6 4 4 5 5 5 2 4 9 8 5 7 5 2 2 3
20 19 19 15 13 17 18 13 11 10 7 8 7 5 5 5 6 7 8 6 3 4 5 7 9 10 12 13 11 11 11 10 11 11 10 9 8 8 10 10 9 7 5 3 4 5 5 8 10 8 8 9 7 6 6 6 5 6 6 4 5 4 5 5 5 6 5 6 7 3 4 4 4 3 2 5 6 6 4 5 6 7 8 6 3 3 4 4
20 17 17 14 13 18 17 12 10 9 8 7 6 5 7 8 7 9 9 7 6 6 6 7 9 10 11 11 9 10 9 9 10 10 9 10 8 7 9 10 11 8 4 3 4 4 6 5 7 8 5 8 7 7 7 7 4 6 6 4 4 4 5 5 4 5 4 5 5 1 0 3 2 2 1 6 6 5 5 5 5 6 6 4 3 4 6 7
20 15 15 13 15 18 17 14 11 8 7 6 5 6 8 7 6 8 8 7 8 7 6 9 9 8 10 10 9 10 9 7 9 10 8 8 8 7 7 8 9 7 5 6 3 3 8 6 6 8 3 5 5 8 6 8 6 4 4 4 4 4 5 5 5 6 4 4 5 3 3 2 1 3 3 6 5 5 6 7 7 6 7 6 4 5 7 7
19 12 10 11 14 17 16 15 12 9 6 5 5 7 7 7 7 8 6 7 6 6 8 9 8 8 7 6 7 9 10 7 7 8 7 8 10 10 10 7 6 6 6 5 2 2 6 5 2 5 4 4 10 8 3 4 4 3 3 4 2 3 6 5 5 5 4 5 5 3 5 2 2 4 5 7 7 7 8 8 9 8 7 7 5 6 7 7
17 11 9 11 15 15 15 14 12 10 6 5 7 7 7 8 10 10 8 7 5 5 8 7 5 7 7 5 7 8 9 7 7 7 6 8 9 8 9 8 6 5 5 4 3 2 2 4 2 3 7 9 8 4 6 7 6 5 4 2 1 3 5 4 4 5 5 6 4 4 7 6 3 4 6 8 8 8 9 9 9 9 8 8 6 7 8 9
15 11 11 15 17 14 14 12 11 10 6 6 8 9 9 10 11 13 11 7 5 5 8 7 4 5 6 5 6 8 8 7 8 8 7 7 5 2 4 6 7 5 5 4 3 1 2 5 5 7 11 8 7 4 6 8 9 9 7 5 3 3 4 3 3 5 5 5 5 5 7 7 5 2 4 9 9 9 9 9 9 10 9 9 7 7 9 9
11 8 8 15 16 12 12 10 9 7 6 7 8 7 9 11 13 15 11 6 6 7 8 8 6 5 6 7 6 8 10 8 7 7 7 6 3 1 3 2 4 5 4 5 5 3 3 4 4 7 11 8 5 5 4 5 8 11 8 6 5 4 4 3 4 4 5 5 5 5 6 4 1 2 2 7 6 4 6 7 9 9 9 10 8 7 8 7
8 6 5 8 12 12 10 9 8 6 7 8 8 8 9 11 13 13 9 3 5 7 8 9 9 7 7 9 9 7 8 8 7 7 6 4 3 2 5 4 4 5 3 4 6 4 3 3 3 6 9 9 4 3 4 6 5 5 6 5 5 3 3 4 5 5 5 6 5 5 6 1 2 2 1 4 4 1 4 6 7 8 10 11 8 7 7 7
6 6 3 6 11 13 10 6 7 6 7 9 9 10 11 9 10 11 6 3 5 8 9 9 9 8 6 8 8 7 7 7 7 6 5 4 4 5 6 5 6 6 3 3 5 2 2 3 4 6 6 8 7 5 6 6 6 5 4 4 4 3 3 5 5 5 4 5 4 6 5 1 2 4 3 2 3 3 3 6 4 9 11 10 9 8 7 7
6 5 4 10 10 12 9 5 7 6 7 8 9 12 10 5 7 11 8 6 6 7 9 9 8 7 7 7 6 7 7 6 7 6 6 6 1 2 2 4 2 1 1 4 3 4 3 2 5 6 6 8 10 11 11 8 6 8 7 6 6 5 4 5 5 4 4 5 5 6 5 1 1 3 3 3 2 4 5 6 5 11 10 9 9 9 8 8
5 4 5 12 12 11 7 6 7 6 7 9 11 13 12 7 7 11 11 9 7 6 7 7 6 6 7 7 6 7 6 5 8 7 8 6 4 10 6 5 2 1 1 5 4 5 3 3 5 7 7 8 11 14 14 10 7 7 7 7 7 7 7 7 6 5 5 6 6 6 4 1 1 2 2 4 3 3 5 4 8 10 8 9 10 9 9 8
5 6 3 10 13 11 7 6 7 7 8 11 12 13 12 10 9 10 10 10 8 6 6 6 5 6 6 7 7 7 6 5 7 8 10 7 4 8 6 6 1 2 1 2 3 3 2 3 4 6 6 7 8 9 9 9 7 5 4 5 7 9 10 9 7 5 5 7 7 7 5 0 1 1 3 3 4 1 3 4 8 8 8 9 9 8 8 8
6 6 4 7 12 9 7 6 7 7 7 9 11 11 11 9 8 9 9 9 8 7 6 5 6 6 6 7 7 6 6 6 5 6 9 6 3 5 3 4 2 2 6 8 6 2 3 3 3 5 5 5 6 4 2 3 3 3 4 7 7 9 11 8 4 4 6 6 6 7 5 0 4 3 0 2 3 2 2 3 6 8 8 8 8 7 7 7
5 4 4 4 6 5 6 7 8 8 7 7 7 8 10 9 8 8 6 8 9 7 6 7 7 6 6 8 8 7 7 8 7 6 7 7 4 4 5 3 3 7 10 8 5 2 3 4 6 8 8 8 9 9 9 8 7 7 8 10 9 9 10 7 3 5 5 5 6 7 6 4 2 1 1 1 2 4 4 3 4 7 7 6 7 7 6 6
4 3 3 3 2 4 5 6 6 7 6 6 5 6 8 10 9 6 3 4 9 6 5 8 8 7 6 7 7 7 8 9 9 9 8 9 5 4 7 3 2 9 8 3 1 1 3 5 8 10 12 13 14 15 15 13 12 12 12 13 13 11 11 7 5 7 7 6 7 6 7 9 8 8 6 3 2 5 5 4 1 3 4 6 6 6 8 8
4 3 4 7 5 5 3 4 5 6 7 5 5 6 7 8 9 6 3 3 8 6 4 6 8 9 9 8 7 6 8 9 9 9 8 8 5 2 6 4 3 8 4 3 4 3 4 6 8 11 13 14 15 15 15 14 13 14 15 16 14 12 12 11 9 10 10 9 9 8 9 11 11 11 10 8 7 7 6 5 3 0 3 7 7 5 7 9
6 4 6 9 7 5 4 7 8 8 7 3 3 5 6 6 8 7 4 2 6 7 5 5 8 9 10 10 8 4 4 5 6 6 7 6 5 4 3 3 3 6 3 4 4 3 3 5 7 10 12 14 14 14 14 14 14 14 16 17 14 13 14 15 13 13 13 13 14 14 13 13 12 11 11 10 9 8 7 6 3 4 7 6 6 6 9 9
7 5 6 8 7 5 5 6 6 7 5 1 1 4 4 5 6 6 4 1 4 7 7 7 9 10 11 12 6 3 7 7 7 7 7 7 4 4 5 3 3 3 4 5 4 3 2 3 5 7 9 11 12 13 13 14 14 15 16 16 15 15 15 15 13 11 11 11 14 14 12 10 9 9 11 11 9 9 9 9 7 7 9 8 7 9 11 9
12 9 8 7 6 6 6 5 5 5 3 2 3 4 3 4 6 5 3 2 4 6 7 9 11 10 11 10 4 8 8 7 7 7 7 7 5 3 4 4 5 6 6 6 4 3 3 3 5 6 7 8 10 12 14 14 15 16 16 15 16 15 12 12 12 11 10 10 11 11 9 7 7 9 10 10 10 11 11 11 7 6 8 11 11 12 11 10
15 12 10 7 5 6 6 4 3 3 4 5 5 5 5 5 5 5 4 4 4 4 4 9 12 8 7 8 9 9 7 7 7 7 7 7 7 6 6 7 8 7 5 5 4 3 4 5 4 5 6 7 10 12 13 12 12 12 9 8 10 10 9 11 12 11 10 9 7 8 8 5 7 10 10 9 9 12 11 9 7 8 10 10 7 9 11 10
Wind_Direction
318 319 318 317 315 314 313 312 313 313 313 310 309 308 309 306 305 305 305 305 304 302 301 305 306 308 308 310 311 312 321 314 302 287 254 251 251 249 268 219 223 252 238 219 230 234 217 218 230 229 232 233 231 239 242 237 232 241 234 240 252 249 253 256 253 259 292 266 88 66 63 28 306 306 317 296 256 256 274 268 100 89 85 100 121 131 141 143
320 320 318 317 315 315 314 313 313 312 311 310 309 309 308 305 305 305 304 305 303 303 302 301 304 306 308 310 311 316 322 307 289 278 259 252 250 251 260 249 246 248 224 219 228 226 218 215 219 221 227 233 225 226 233 225 212 230 244 237 243 250 257 262 256 264 1 316 342 16 32 54 297 305 324 293 268 248 250 233 110 100 98 102 114 125 135 143
320 318 316 315 314 315 314 312 312 312 311 311 310 308 307 305 305 304 304 305 302 303 301 300 303 302 307 309 313 326 321 302 283 270 254 239 235 244 252 250 248 234 214 216 223 222 227 227 217 217 226 236 231 224 223 208 202 220 240 246 244 248 256 266 270 302 354 318 319 313 313 341 283 286 310 294 282 265 246 221 132 117 117 117 120 129 141 147
319 317 316 314 312 313 313 312 311 310 310 309 308 307 308 308 306 306 303 302 299 300 300 302 303 302 309 308 316 336 315 293 280 236 187 203 219 236 243 242 236 223 216 224 239 238 237 241 235 226 227 238 234 231 229 209 206 216 225 242 252 256 262 278 295 335 326 306 308 300 315 299 279 300 289 278 273 265 248 236 197 140 130 131 133 140 150 153
319 318 316 314 312 311 311 311 311 310 311 310 309 308 309 309 308 306 301 299 297 298 302 301 304 306 308 308 322 328 303 288 90 102 128 175 210 232 233 227 219 214 217 229 249 252 242 244 249 238 231 244 241 232 227 219 222 230 233 242 258 271 284 299 313 347 324 308 304 295 291 276 285 306 268 263 255 263 313 331 276 152 139 138 140 145 150 152
320 317 313 313 310 309 309 310 310 310 311 309 310 310 309 309 306 305 302 302 299 298 300 298 305 309 309 316 322 305 284 302 65 111 143 178 216 235 218 205 203 206 217 230 245 247 238 238 241 235 229 238 246 243 227 219 226 239 247 248 257 270 277 283 300 337 351 290 278 277 269 268 285 277 265 261 255 263 46 31 31 114 132 135 137 143 145 146
319 316 314 314 311 309 309 307 307 307 308 307 308 310 309 309 306 306 305 303 301 298 297 298 305 306 318 326 306 266 256 279 340 110 146 181 219 219 192 187 195 204 220 234 242 234 221 226 227 227 230 234 243 247 237 227 230 235 247 257 257 259 264 269 279 293 275 255 261 265 264 264 269 269 263 251 250 236 85 65 66 97 118 126 128 133 135 137
318 317 315 315 312 311 308 305 306 304 305 305 306 308 307 307 303 302 304 303 300 298 297 299 304 309 332 333 299 250 244 254 107 110 154 156 159 170 170 180 194 206 220 235 242 230 217 225 229 229 230 233 237 243 242 237 235 232 243 261 267 265 267 271 272 272 262 254 255 252 256 259 257 263 269 255 244 176 104 102 104 107 118 120 120 126 126 133
317 317 316 314 312 311 307 305 306 304 305 304 304 305 304 303 301 300 301 301 300 298 299 296 301 318 338 320 288 282 267 130 111 140 153 139 147 157 167 181 193 205 220 233 238 230 223 225 227 230 238 250 259 261 252 238 233 237 245 251 257 260 255 256 257 252 247 242 247 248 245 247 248 252 258 249 228 128 109 113 117 120 128 121 122 128 127 139
317 317 315 313 309 307 305 305 306 305 304 303 304 303 303 303 300 301 298 298 300 297 298 295 308 336 315 286 270 282 78 110 126 146 146 144 151 162 181 189 188 206 227 231 232 232 234 241 241 245 259 267 273 278 262 241 237 251 260 255 254 262 262 258 255 246 240 231 238 243 239 243 235 224 247 226 163 122 113 112 116 122 132 129 126 129 131 135
318 316 313 310 305 303 303 303 304 304 303 303 305 305 304 303 299 300 296 294 294 293 298 297 316 327 293 280 268 278 75 132 148 146 155 156 159 175 195 201 197 212 232 230 230 240 241 257 284 276 263 278 271 262 249 246 253 262 274 270 262 266 265 257 256 250 241 237 237 236 242 247 217 203 239 186 146 158 131 120 126 126 139 152 132 130 133 129
318 315 311 308 303 302 300 300 301 300 303 304 305 306 305 305 302 298 295 293 290 288 296 299 330 311 290 279 251 256 327 203 173 156 170 169 175 188 198 212 210 216 233 228 223 240 248 273 300 265 251 308 274 260 249 239 248 263 265 268 260 256 251 242 244 240 230 235 229 223 244 245 214 224 229 152 150 182 144 135 144 139 166 178 137 130 134 143
320 317 310 305 302 301 299 296 296 297 302 306 307 307 307 309 306 298 292 291 288 287 295 305 329 284 282 283 243 229 259 204 169 172 183 183 195 203 216 226 217 227 250 258 240 229 239 265 279 265 271 283 264 302 334 252 242 260 250 253 258 254 244 225 221 225 228 232 205 201 240 227 216 222 187 133 171 192 154 154 155 145 167 173 146 140 130 144
321 318 309 303 300 298 297 293 293 296 300 305 308 306 308 311 306 297 290 285 284 288 296 301 291 270 260 269 251 190 201 208 172 191 189 193 207 207 219 228 227 240 254 273 279 240 227 256 264 268 274 267 270 308 306 251 239 253 244 243 244 256 251 208 193 209 222 210 170 194 244 230 222 192 150 148 187 200 167 162 166 149 156 164 149 142 129 136
323 319 310 303 298 294 294 293 294 297 299 304 307 306 307 308 305 296 287 284 281 282 304 292 243 239 263 259 234 172 192 204 193 199 185 194 211 204 203 209 220 235 232 252 280 266 234 252 255 255 255 245 258 279 264 235 225 234 240 236 228 248 245 167 169 198 214 174 158 209 248 247 240 165 138 167 182 204 184 151 157 134 132 158 150 133 127 137
326 320 311 303 297 292 292 294 296 297 299 302 305 307 306 306 307 300 290 282 270 272 297 273 222 214 273 295 161 158 193 209 199 194 188 200 205 188 187 195 204 216 216 231 256 257 232 239 247 253 265 250 235 244 252 245 224 214 233 243 238 243 202 148 171 192 209 192 174 210 246 251 239 128 132 175 186 212 187 135 142 131 130 148 140 128 124 142
329 321 315 307 298 293 293 295 295 294 297 303 307 309 309 307 307 302 291 270 261 256 236 262 253 217 254 301 171 182 203 208 190 182 191 212 216 180 171 192 201 200 208 221 229 237 227 228 244 247 255 254 244 244 244 247 233 206 219 235 249 252 216 157 168 183 209 218 186 199 236 250 126 115 152 179 199 225 190 142 148 150 135 112 97 124 137 157
332 325 317 310 303 299 297 295 294 294 298 304 308 315 315 301 303 307 286 238 235 251 242 259 270 255 250 247 234 210 196 190 179 185 190 209 233 200 180 202 200 192 209 218 214 221 220 216 236 245 236 231 236 241 240 257 293 312 269 237 241 257 248 204 166 172 194 211 209 206 228 247 167 147 170 178 221 241 207 166 154 143 134 122 127 162 169 170
337 331 322 314 308 302 300 297 295 295 298 303 313 327 323 301 298 284 238 213 192 220 240 212 204 240 279 206 217 198 170 173 174 192 193 194 226 217 201 213 208 205 218 211 198 206 216 216 232 242 234 233 230 230 260 330 343 337 312 277 244 249 250 244 119 137 177 202 213 219 223 230 211 173 167 176 201 241 244 190 150 135 138 151 172 179 177 172
341 333 325 319 312 307 303 298 295 296 298 302 316 313 298 286 272 218 204 216 221 239 272 232 193 225 255 173 176 139 135 170 189 200 197 191 213 215 207 220 223 218 230 234 201 191 225 236 239 241 235 284 315 341 353 347 337 326 312 297 267 246 236 199 141 144 174 248 217 235 246 233 227 209 190 182 177 195 255 258 157 145 155 169 175 176 176 173
343 335 329 323 315 309 303 301 299 298 296 297 305 273 274 335 350 358 231 230 230 236 256 259 214 224 260 190 147 150 163 188 203 208 197 190 208 214 197 211 227 214 223 243 223 159 222 252 250 248 227 37 3 2 352 338 326 315 303 301 296 268 245 104 108 141 128 286 264 262 267 247 225 232 223 207 199 184 200 258 236 178 183 192 177 169 169 168
346 339 330 323 316 310 308 305 299 297 297 291 264 248 272 345 357 334 322 271 251 236 235 247 239 232 256 255 179 186 205 192 197 207 192 186 206 212 184 192 225 222 211 231 239 186 213 244 251 241 116 76 0 355 334 325 312 301 287 283 288 277 260 101 106 152 124 179 258 257 263 264 243 236 242 257 248 209 170 235 260 221 212 229 189 159 155 158
349 340 329 323 316 314 310 304 298 293 280 253 240 253 281 331 342 329 316 285 277 251 227 225 237 237 230 232 213 211 227 209 198 196 183 188 209 216 210 210 223 230 220 212 215 242 237 225 236 221 86 343 319 331 317 315 291 278 277 269 267 264 261 153 132 115 37 45 289 283 278 293 291 262 255 252 233 200 190 234 255 242 218 244 195 145 147 158
352 341 328 319 315 313 310 305 294 280 263 246 250 262 286 324 330 333 326 277 274 263 239 218 222 231 221 220 207 210 230 225 210 186 170 190 217 213 224 238 238 240 240 220 205 237 261 227 108 100 80 293 301 303 278 278 268 253 246 255 267 267 272 285 100 86 346 315 283 283 282 280 278 244 236 255 210 164 212 234 244 239 219 237 190 140 150 166
354 345 327 312 311 309 309 304 278 266 253 244 252 256 276 320 335 337 331 278 266 250 233 216 211 223 215 203 195 209 225 235 238 191 162 188 221 210 214 234 246 244 240 235 222 227 259 325 97 131 179 222 246 265 248 239 260 256 237 240 258 275 293 301 291 124 274 268 220 231 258 249 242 230 226 239 209 183 220 233 232 233 220 225 194 147 154 166
353 348 332 307 298 307 308 295 280 272 246 237 248 252 287 320 354 342 311 268 271 230 196 187 185 203 201 186 185 215 228 238 243 164 154 191 222 226 239 221 224 250 257 262 242 224 215 155 274 281 279 258 252 256 252 242 251 265 286 277 255 261 287 285 278 263 249 268 208 189 238 263 244 250 246 234 212 191 213 234 228 234 225 222 216 168 159 159
350 347 337 305 280 295 284 290 312 302 272 260 293 309 318 339 1 338 289 268 265 211 177 165 164 178 189 179 183 210 227 219 187 144 150 197 213 225 255 238 222 237 255 278 258 258 248 163 140 296 276 259 258 254 241 233 240 254 347 308 275 258 263 261 263 261 254 280 253 187 233 266 257 263 273 255 213 185 200 223 219 222 214 205 208 196 186 167
347 345 341 309 264 258 258 286 309 293 288 341 353 312 330 2 343 304 270 282 242 183 174 165 143 177 196 180 187 216 217 161 180 157 159 199 204 213 237 245 265 266 242 239 224 310 277 196 158 244 255 251 254 254 244 234 232 227 233 297 285 273 267 260 254 253 258 274 260 224 237 253 251 260 255 223 215 199 202 212 214 226 216 194 196 204 200 177
344 342 340 316 262 257 260 268 282 274 283 311 329 323 336 347 318 267 247 274 205 173 168 168 158 194 207 182 191 225 225 178 201 175 169 195 206 227 250 258 279 287 267 223 226 244 252 246 237 241 244 246 246 246 245 249 252 251 279 310 288 271 270 268 264 264 264 262 263 261 255 253 256 261 243 199 203 218 216 203 202 227 226 187 197 208 146 111
340 338 336 322 253 256 261 247 258 269 279 294 314 327 313 295 282 245 235 241 212 201 150 156 184 192 204 198 195 220 228 217 211 166 173 196 202 222 261 280 278 286 281 226 242 254 228 179 296 275 255 256 263 263 230 249 267 264 262 274 263 255 257 260 263 272 268 258 258 257 251 252 256 256 266 218 182 199 231 208 172 197 217 167 121 81 77 186
335 333 331 313 239 241 259 237 264 276 268 302 326 316 287 253 243 247 235 259 261 206 160 171 203 189 195 212 207 202 215 225 204 166 187 203 203 211 236 253 251 268 270 245 240 254 241 185 192 233 247 264 276 280 276 245 251 259 251 262 268 252 244 255 250 246 252 253 255 256 250 244 248 257 311 71 134 161 220 206 159 168 182 112 93 97 138 331
329 326 320 300 250 237 245 262 314 322 314 331 327 285 263 245 237 237 240 270 279 197 190 210 210 194 195 212 217 197 205 224 210 198 211 206 200 209 218 225 217 226 251 246 228 243 259 254 234 207 201 234 263 267 260 240 230 248 249 248 263 258 246 251 245 241 246 252 259 281 291 252 241 242 183 144 155 173 174 162 168 169 133 99 98 105 71 53
321 318 309 293 256 238 242 260 300 320 327 322 297 259 250 246 243 242 245 256 229 191 232 234 211 202 203 211 216 200 203 223 216 209 211 207 203 206 220 227 211 212 241 268 261 244 243 264 267 243 186 189 232 254 251 234 202 224 242 240 246 248 248 247 248 253 249 254 258 299 338 273 249 269 197 143 150 161 125 100 136 137 113 111 135 133 104 79
315 307 296 285 255 241 241 247 270 298 310 293 269 247 241 241 252 262 259 251 235 234 260 252 221 206 212 222 212 195 208 226 220 218 209 205 217 212 217 234 224 220 240 238 248 253 245 245 243 243 186 155 205 247 264 280 260 227 232 234 233 242 258 261 262 266 272 288 281 222 276 265 242 274 85 103 109 130 138 123 111 107 118 146 158 106 87 73
312 299 284 272 250 242 238 237 249 272 282 274 257 241 238 241 249 254 256 252 243 244 260 259 244 223 220 227 218 201 216 228 210 218 225 210 223 223 209 231 236 232 245 238 221 227 248 258 222 220 165 112 236 253 263 284 287 263 240 230 218 219 242 254 262 276 301 305 286 239 243 283 182 219 157 122 140 163 156 141 139 157 155 146 127 97 84 81
317 304 269 248 242 240 234 231 233 235 247 260 253 242 237 243 249 248 267 283 270 256 256 251 243 243 236 226 235 216 203 217 211 213 234 224 224 225 207 206 215 216 237 253 267 242 251 278 227 190 175 207 249 267 278 274 291 313 273 254 259 243 243 252 261 270 272 259 261 244 246 242 150 210 174 165 192 176 153 152 162 169 147 124 113 102 93 86
321 305 266 243 242 232 220 219 215 213 234 255 248 252 251 250 254 257 270 289 298 286 270 259 230 242 243 217 239 230 192 201 223 222 238 230 225 228 208 180 161 207 261 292 284 275 263 282 277 223 236 224 220 268 289 277 285 289 266 260 286 254 251 259 263 265 260 253 254 242 245 239 227 221 174 182 200 172 167 178 164 148 132 120 105 98 98 94
309 298 281 260 248 220 200 205 210 215 234 251 246 254 261 261 264 269 276 286 288 272 262 260 231 229 252 237 227 231 214 207 221 229 235 222 217 267 229 175 156 205 280 306 270 245 240 272 272 261 268 244 174 190 265 261 253 252 270 295 287 257 250 236 245 260 262 266 265 258 263 260 258 260 169 185 196 185 191 188 161 157 151 128 107 99 100 100
283 274 276 256 236 194 179 193 209 225 235 244 247 246 254 259 258 264 277 297 295 276 262 263 253 223 242 256 243 231 229 225 221 229 235 218 186 349 282 234 163 191 249 265 265 274 255 276 277 263 280 278 188 186 256 259 233 227 240 269 271 277 277 250 249 260 259 268 272 270 274 276 311 343 193 190 191 201 222 197 170 169 149 122 117 118 106 102
268 263 267 228 196 168 167 189 209 231 233 237 248 250 254 260 259 261 265 276 283 275 266 271 269 251 234 243 252 251 246 242 233 236 242 216 142 174 237 246 224 196 183 246 272 292 279 277 276 271 288 290 252 213 263 292 285 243 229 239 246 263 279 264 256 258 263 269 276 280 279 302 43 2 121 153 159 209 256 222 175 145 123 116 120 120 110 104
279 277 243 162 161 163 168 193 217 232 235 236 244 251 260 275 280 280 275 246 263 273 275 278 282 291 278 249 248 252 257 258 251 254 262 233 199 212 211 198 225 223 169 222 254 292 297 275 271 271 275 274 267 256 262 279 300 304 288 275 282 290 281 273 262 265 281 279 277 282 280 22 36 350 29 89 175 164 264 255 162 118 112 114 116 116 114 110
259 266 175 142 154 172 182 221 227 225 236 242 245 246 253 284 288 279 269 238 239 257 268 269 270 282 280 264 258 251 251 258 253 251 259 252 209 91 131 131 172 254 10 280 292 44 31 293 277 272 265 274 282 282 281 277 273 284 286 277 285 287 276 272 269 280 294 284 285 290 287 14 6 327 357 322 259 144 205 237 142 114 116 120 121 121 117 109
245 259 152 151 169 185 207 245 234 229 240 247 254 254 254 263 267 267 265 256 246 239 249 261 268 270 265 264 267 258 251 256 259 260 260 257 93 90 98 98 93 85 20 284 310 38 21 269 261 271 275 282 279 274 275 266 239 250 268 272 279 277 271 274 283 292 288 282 290 289 278 272 316 318 2 319 309 145 171 163 116 114 123 126 124 123 122 117
289 287 199 170 181 197 223 240 236 240 243 245 253 260 261 260 258 262 264 263 259 248 251 270 279 274 274 275 272 267 263 252 250 257 261 258 105 100 106 95 84 270 50 22 16 34 313 250 239 262 274 276 263 249 252 250 233 232 270 288 288 285 277 269 276 293 284 280 284 278 276 154 114 22 26 320 294 218 152 128 132 139 135 132 131 126 125 124
306 280 255 187 179 201 232 241 250 255 262 267 266 265 264 256 253 265 278 285 286 282 285 289 285 288 291 284 273 265 268 270 257 254 263 257 128 120 135 116 106 357 45 47 38 8 289 278 269 267 266 268 267 259 280 310 304 294 289 283 287 303 301 286 277 280 272 280 280 271 286 276 155 161 247 292 294 281 243 196 159 144 137 139 136 132 134 133
302 272 277 217 183 214 240 241 257 262 271 282 276 271 268 259 251 252 269 285 280 277 290 286 280 292 293 286 287 280 271 274 271 258 259 257 219 156 152 155 119 82 62 38 18 339 289 281 276 270 268 274 281 294 316 326 313 292 285 278 272 286 299 296 280 266 272 297 289 275 297 306 261 282 346 45 328 303 284 239 172 148 151 152 134 134 143 138
296 292 335 346 300 274 244 236 255 262 268 270 263 266 265 261 261 236 187 272 276 270 283 284 277 277 275 274 283 288 282 279 274 264 256 259 263 119 123 163 128 102 84 23 314 261 274 261 258 262 266 271 277 288 298 300 294 287 284 281 275 279 292 292 273 273 280 281 268 277 309 311 313 324 335 11 340 296 297 289 241 124 147 158 151 162 162 150
342 317 12 15 325 280 285 322 316 307 306 297 284 286 277 269 271 253 194 288 299 286 263 277 277 269 269 268 261 267 276 275 275 278 274 265 267 127 141 185 131 110 112 266 231 202 251 257 258 262 263 267 271 276 280 281 282 282 280 282 283 284 284 275 266 275 283 281 276 288 299 293 297 306 309 319 313 290 283 272 253 296 211 177 164 197 190 166
3 336 2 1 321 288 330 343 324 309 312 323 313 300 288 282 282 276 262 303 321 309 291 292 287 276 273 271 269 291 324 310 301 313 321 307 291 288 260 227 159 136 159 260 241 193 219 253 266 273 274 275 273 275 282 284 283 280 279 279 278 272 271 274 276 273 268 271 279 285 285 281 286 296 299 304 307 304 306 294 252 244 244 195 162 217 221 192
355 346 349 338 322 320 329 319 298 290 296 314 304 292 287 294 292 276 259 274 332 324 321 313 307 307 297 279 273 18 39 21 351 349 354 344 324 305 304 300 282 249 235 256 251 158 154 256 288 294 285 282 281 283 285 282 281 282 281 282 285 282 279 282 288 283 271 269 276 282 287 287 291 299 299 297 293 284 278 275 264 248 244 219 195 222 233 227
349 344 338 324 325 329 316 295 278 283 306 357 343 325 310 308 305 291 296 18 350 336 344 335 328 330 318 303 344 43 33 11 354 349 343 331 317 311 312 307 306 297 276 266 255 158 163 256 301 303 283 281 285 282 280 281 282 281 279 282 285 285 283 279 271 270 274 275 280 286 287 292 313 310 294 292 302 298 279 269 279 296 274 249 230 231 236 239
352 343 338 326 312 307 303 308 323 345 352 352 353 341 316 305 315 320 342 357 314 305 14 359 335 320 326 351 22 27 360 340 334 330 326 313 297 293 291 284 287 294 291 280 266 232 237 258 279 279 276 286 288 288 296 302 291 279 284 301 294 292 309 304 284 278 281 276 274 277 273 291 347 337 312 305 328 339 333 320 332 345 327 311 287 253 234 226